{"data":{"norad_id":59667,"epoch":"2026-09-21T15:23:13.163712Z","epoch_age_seconds":72666,"freshness":"FRESH","line1":"1 59667U 24084P   26264.64112458 -.00000458  00000+0 -71242-5 0  9991","line2":"2 59667  43.0029  11.5089 0001504 276.4114  83.6566 15.27580712134383","mean_motion":15.27580712,"eccentricity":0.0001504,"inclination_deg":43.0029,"raan_deg":11.5089,"arg_perigee_deg":276.4114,"mean_anomaly_deg":83.6566,"bstar":-7.1242e-6,"rev_number":13438,"period_min":94.266704776251,"perigee_km":482.01504198815,"apogee_km":484.07888612454,"semimajor_km":6861.1839640563,"source":"CELESTRAK","updated_at":"2026-09-22T09:00:49.027886Z"}}